QPF
0.00 0.01 0.02 0.03 0.03 0.03 0.04 0.04 0.03 0.03 0.07 0.11 0.12 0.10 0.13 0.15 0.14 0.13 0.13 0.12 0.14 0.16 0.17 0.17 0.18 0.17 0.13 0.11 0.10 0.08 0.07 0.06 0.04 0.03 0.04 0.05 0.08 0.11 0.14 0.14 0.12 0.10 0.08
0.00 0.01 0.01 0.03 0.03 0.03 0.03 0.03 0.04 0.03 0.05 0.07 0.08 0.09 0.10 0.12 0.15 0.14 0.13 0.12 0.13 0.14 0.14 0.14 0.15 0.15 0.13 0.12 0.09 0.07 0.07 0.06 0.06 0.06 0.05 0.05 0.05 0.06 0.08 0.11 0.11 0.11 0.10
0.00 0.00 0.01 0.02 0.02 0.03 0.03 0.03 0.04 0.05 0.07 0.08 0.10 0.14 0.09 0.06 0.10 0.11 0.11 0.12 0.14 0.13 0.13 0.13 0.14 0.13 0.11 0.10 0.09 0.08 0.07 0.07 0.07 0.07 0.07 0.07 0.06 0.07 0.08 0.08 0.09 0.10 0.11
0.00 0.00 0.00 0.01 0.01 0.02 0.03 0.03 0.04 0.05 0.04 0.04 0.07 0.11 0.09 0.07 0.08 0.08 0.09 0.10 0.13 0.12 0.11 0.10 0.10 0.10 0.08 0.08 0.09 0.08 0.08 0.08 0.08 0.10 0.10 0.11 0.11 0.11 0.11 0.11 0.11 0.10 0.10
0.00 0.00 0.00 0.00 0.00 0.01 0.01 0.02 0.03 0.03 0.03 0.03 0.05 0.07 0.07 0.06 0.06 0.08 0.11 0.11 0.10 0.09 0.08 0.08 0.07 0.07 0.05 0.06 0.08 0.09 0.09 0.08 0.08 0.09 0.09 0.10 0.11 0.12 0.12 0.12 0.13 0.12 0.12
0.00 0.00 0.00 0.00 0.00 0.00 0.00 0.01 0.02 0.02 0.02 0.03 0.04 0.04 0.04 0.04 0.06 0.09 0.12 0.11 0.09 0.08 0.07 0.07 0.06 0.06 0.06 0.06 0.08 0.08 0.09 0.09 0.08 0.07 0.07 0.08 0.08 0.09 0.09 0.10 0.08 0.09 0.11
0.00 0.00 0.00 0.00 0.00 0.00 0.00 0.00 0.01 0.01 0.02 0.03 0.03 0.04 0.03 0.03 0.03 0.04 0.06 0.05 0.05 0.05 0.06 0.08 0.08 0.07 0.06 0.05 0.06 0.07 0.07 0.07 0.07 0.07 0.06 0.06 0.06 0.07 0.07 0.06 0.05 0.05 0.05
0.00 0.00 0.00 0.00 0.00 0.00 0.00 0.00 0.01 0.01 0.01 0.01 0.02 0.03 0.03 0.03 0.03 0.03 0.03 0.04 0.03 0.03 0.04 0.05 0.07 0.10 0.09 0.07 0.05 0.05 0.05 0.07 0.06 0.05 0.04 0.05 0.05 0.04 0.05 0.06 0.05 0.06 0.06
0.00 0.00 0.00 0.00 0.00 0.00 0.00 0.00 0.01 0.01 0.01 0.01 0.01 0.01 0.01 0.02 0.03 0.02 0.02 0.02 0.04 0.05 0.04 0.03 0.04 0.07 0.09 0.09 0.06 0.06 0.05 0.05 0.06 0.04 0.04 0.04 0.05 0.04 0.04 0.05 0.05 0.05 0.06
0.00 0.00 0.00 0.00 0.00 0.00 0.00 0.00 0.00 0.01 0.01 0.01 0.01 0.01 0.01 0.01 0.01 0.01 0.01 0.02 0.04 0.06 0.04 0.03 0.03 0.05 0.06 0.07 0.05 0.04 0.04 0.04 0.04 0.04 0.04 0.05 0.05 0.04 0.05 0.06 0.07 0.05 0.04
0.00 0.00 0.00 0.00 0.00 0.00 0.00 0.00 0.00 0.00 0.00 0.00 0.00 0.01 0.01 0.01 0.01 0.01 0.02 0.02 0.03 0.05 0.05 0.03 0.03 0.04 0.04 0.06 0.06 0.05 0.04 0.04 0.05 0.06 0.06 0.05 0.04 0.03 0.04 0.06 0.06 0.04 0.03
0.00 0.00 0.00 0.00 0.00 0.00 0.00 0.00 0.00 0.00 0.00 0.00 0.00 0.00 0.00 0.01 0.01 0.02 0.02 0.02 0.02 0.02 0.04 0.04 0.03 0.02 0.02 0.04 0.04 0.05 0.05 0.05 0.05 0.05 0.04 0.04 0.03 0.02 0.03 0.05 0.05 0.04 0.02
0.00 0.00 0.00 0.00 0.00 0.00 0.00 0.00 0.00 0.00 0.00 0.00 0.00 0.00 0.00 0.01 0.01 0.03 0.02 0.02 0.02 0.01 0.02 0.03 0.03 0.02 0.02 0.02 0.04 0.04 0.03 0.03 0.05 0.07 0.04 0.03 0.02 0.02 0.03 0.04 0.03 0.03 0.03
0.00 0.00 0.00 0.00 0.00 0.00 0.00 0.00 0.00 0.00 0.00 0.00 0.00 0.00 0.00 0.00 0.01 0.02 0.02 0.01 0.01 0.01 0.01 0.02 0.03 0.02 0.03 0.03 0.02 0.02 0.03 0.03 0.05 0.05 0.03 0.03 0.03 0.03 0.04 0.04 0.04 0.04 0.03
0.00 0.00 0.00 0.00 0.00 0.00 0.00 0.00 0.00 0.00 0.00 0.00 0.00 0.00 0.00 0.00 0.00 0.02 0.02 0.01 0.01 0.01 0.01 0.01 0.01 0.02 0.02 0.03 0.02 0.02 0.03 0.04 0.04 0.03 0.02 0.02 0.03 0.03 0.04 0.04 0.04 0.04 0.02
0.00 0.00 0.00 0.00 0.00 0.00 0.00 0.00 0.00 0.00 0.00 0.00 0.00 0.00 0.00 0.00 0.00 0.01 0.01 0.01 0.01 0.01 0.01 0.01 0.02 0.02 0.02 0.03 0.02 0.02 0.02 0.03 0.03 0.02 0.02 0.02 0.02 0.02 0.03 0.02 0.02 0.02 0.02
0.00 0.00 0.00 0.00 0.00 0.00 0.00 0.00 0.00 0.00 0.00 0.00 0.00 0.00 0.00 0.00 0.00 0.00 0.00 0.00 0.01 0.00 0.00 0.01 0.01 0.01 0.01 0.01 0.01 0.01 0.01 0.01 0.01 0.01 0.01 0.01 0.01 0.01 0.01 0.01 0.01 0.01 0.01
0.00 0.00 0.00 0.00 0.00 0.00 0.00 0.00 0.00 0.00 0.00 0.00 0.00 0.00 0.00 0.00 0.00 0.00 0.00 0.00 0.00 0.00 0.00 0.00 0.00 0.00 0.00 0.01 0.01 0.01 0.00 0.01 0.01 0.01 0.01 0.01 0.01 0.01 0.01 0.00 0.00 0.00 0.00
0.00 0.00 0.00 0.00 0.00 0.00 0.00 0.00 0.00 0.00 0.00 0.00 0.00 0.00 0.00 0.00 0.00 0.00 0.00 0.00 0.00 0.00 0.00 0.00 0.00 0.00 0.00 0.00 0.01 0.01 0.00 0.00 0.00 0.00 0.00 0.00 0.00 0.01 0.00 0.00 0.00 0.00 0.01
0.00 0.00 0.00 0.00 0.00 0.00 0.00 0.00 0.00 0.00 0.00 0.00 0.00 0.00 0.00 0.00 0.00 0.00 0.00 0.00 0.00 0.00 0.00 0.00 0.00 0.00 0.00 0.00 0.00 0.00 0.00 0.00 0.00 0.00 0.00 0.00 0.00 0.00 0.00 0.00 0.00 0.01 0.01
0.00 0.00 0.00 0.00 0.00 0.00 0.00 0.00 0.00 0.00 0.00 0.00 0.00 0.00 0.00 0.00 0.00 0.00 0.00 0.00 0.00 0.00 0.00 0.00 0.00 0.00 0.00 0.00 0.00 0.00 0.00 0.00 0.00 0.00 0.00 0.00 0.00 0.00 0.00 0.00 0.00 0.00 0.00
0.00 0.00 0.00 0.00 0.00 0.00 0.00 0.00 0.00 0.00 0.00 0.00 0.00 0.00 0.00 0.00 0.00 0.00 0.00 0.00 0.00 0.00 0.00 0.00 0.00 0.00 0.00 0.00 0.00 0.00 0.00 0.00 0.00 0.00 0.00 0.00 0.00 0.00 0.00 0.00 0.00 0.00 0.00
0.00 0.00 0.00 0.00 0.00 0.00 0.00 0.00 0.00 0.00 0.00 0.00 0.00 0.00 0.00 0.00 0.00 0.00 0.00 0.00 0.00 0.00 0.00 0.00 0.00 0.00 0.00 0.00 0.00 0.00 0.00 0.00 0.00 0.00 0.00 0.00 0.00 0.00 0.00 0.00 0.00 0.00 0.00
0.00 0.00 0.00 0.00 0.00 0.00 0.00 0.00 0.00 0.00 0.00 0.00 0.00 0.00 0.00 0.00 0.00 0.00 0.00 0.00 0.00 0.00 0.00 0.00 0.00 0.00 0.00 0.00 0.00 0.00 0.00 0.00 0.00 0.00 0.00 0.00 0.00 0.00 0.00 0.00 0.00 0.00 0.00
0.00 0.00 0.00 0.00 0.00 0.00 0.00 0.00 0.00 0.00 0.00 0.00 0.00 0.00 0.00 0.00 0.00 0.00 0.00 0.00 0.00 0.00 0.00 0.00 0.00 0.00 0.00 0.00 0.00 0.00 0.00 0.00 0.00 0.00 0.00 0.00 0.00 0.00 0.00 0.00 0.00 0.00 0.00
0.00 0.00 0.00 0.00 0.00 0.00 0.00 0.00 0.00 0.00 0.00 0.00 0.00 0.00 0.00 0.00 0.00 0.00 0.00 0.00 0.00 0.00 0.00 0.00 0.00 0.00 0.00 0.00 0.00 0.00 0.00 0.00 0.00 0.00 0.00 0.00 0.00 0.00 0.00 0.00 0.00 0.00 0.00
MSLP
1016.50 1016.22 1015.90 1015.52 1015.06 1014.50 1013.83 1013.08 1012.27 1011.44 1010.62 1009.86 1009.18 1008.62 1008.20 1007.92 1007.78 1007.77 1007.89 1008.12 1008.43 1008.82 1009.26 1009.74 1010.25 1010.79 1011.34 1011.91 1012.49 1013.06 1013.62 1014.16 1014.65 1015.09 1015.46 1015.74 1015.95 1016.07 1016.14 1016.18 1016.19 1016.23 1016.31
1016.71 1016.42 1016.10 1015.74 1015.31 1014.79 1014.18 1013.50 1012.75 1011.97 1011.18 1010.43 1009.74 1009.14 1008.65 1008.30 1008.08 1007.99 1008.03 1008.18 1008.43 1008.76 1009.14 1009.57 1010.03 1010.51 1011.02 1011.54 1012.09 1012.65 1013.22 1013.78 1014.33 1014.83 1015.27 1015.64 1015.92 1016.13 1016.26 1016.34 1016.40 1016.45 1016.54
1016.97 1016.69 1016.38 1016.03 1015.62 1015.15 1014.61 1013.99 1013.33 1012.62 1011.90 1011.19 1010.52 1009.91 1009.40 1008.99 1008.70 1008.54 1008.50 1008.57 1008.75 1009.00 1009.31 1009.67 1010.06 1010.47 1010.91 1011.37 1011.86 1012.37 1012.91 1013.47 1014.02 1014.54 1015.03 1015.46 1015.82 1016.10 1016.31 1016.47 1016.59 1016.70 1016.83
1017.26 1016.98 1016.68 1016.34 1015.96 1015.53 1015.04 1014.51 1013.94 1013.32 1012.69 1012.05 1011.43 1010.86 1010.34 1009.92 1009.59 1009.37 1009.26 1009.26 1009.35 1009.52 1009.75 1010.03 1010.33 1010.66 1011.01 1011.38 1011.79 1012.22 1012.70 1013.20 1013.72 1014.24 1014.74 1015.21 1015.62 1015.98 1016.28 1016.52 1016.73 1016.93 1017.13
1017.55 1017.28 1016.98 1016.64 1016.27 1015.87 1015.44 1014.98 1014.50 1013.99 1013.46 1012.93 1012.39 1011.88 1011.40 1010.98 1010.64 1010.39 1010.23 1010.16 1010.18 1010.27 1010.41 1010.59 1010.81 1011.03 1011.28 1011.55 1011.86 1012.20 1012.58 1013.00 1013.45 1013.93 1014.42 1014.89 1015.34 1015.76 1016.14 1016.48 1016.80 1017.10 1017.39
1017.82 1017.56 1017.25 1016.91 1016.54 1016.16 1015.77 1015.38 1014.98 1014.57 1014.16 1013.73 1013.30 1012.88 1012.47 1012.09 1011.76 1011.49 1011.29 1011.17 1011.12 1011.13 1011.19 1011.29 1011.40 1011.54 1011.68 1011.85 1012.04 1012.27 1012.55 1012.87 1013.25 1013.66 1014.11 1014.57 1015.04 1015.50 1015.94 1016.37 1016.79 1017.20 1017.60
1018.08 1017.81 1017.50 1017.14 1016.77 1016.40 1016.04 1015.69 1015.37 1015.06 1014.75 1014.44 1014.12 1013.79 1013.46 1013.13 1012.83 1012.56 1012.34 1012.18 1012.07 1012.01 1012.00 1012.01 1012.04 1012.08 1012.14 1012.21 1012.31 1012.44 1012.62 1012.85 1013.14 1013.49 1013.88 1014.31 1014.78 1015.26 1015.75 1016.25 1016.74 1017.24 1017.74
1018.30 1018.05 1017.72 1017.36 1016.98 1016.61 1016.27 1015.96 1015.70 1015.47 1015.25 1015.04 1014.82 1014.58 1014.33 1014.06 1013.78 1013.53 1013.29 1013.09 1012.93 1012.81 1012.72 1012.66 1012.62 1012.60 1012.59 1012.59 1012.62 1012.69 1012.80 1012.96 1013.19 1013.47 1013.81 1014.21 1014.65 1015.12 1015.63 1016.16 1016.71 1017.27 1017.84
1018.49 1018.25 1017.93 1017.57 1017.20 1016.84 1016.51 1016.25 1016.03 1015.86 1015.71 1015.58 1015.44 1015.27 1015.07 1014.84 1014.59 1014.33 1014.07 1013.84 1013.63 1013.45 1013.31 1013.20 1013.11 1013.04 1013.00 1012.97 1012.98 1013.01 1013.09 1013.22 1013.40 1013.65 1013.95 1014.30 1014.71 1015.16 1015.65 1016.18 1016.74 1017.32 1017.91
1018.63 1018.42 1018.13 1017.79 1017.44 1017.10 1016.81 1016.58 1016.40 1016.27 1016.18 1016.10 1016.00 1015.87 1015.70 1015.49 1015.24 1014.97 1014.69 1014.42 1014.17 1013.95 1013.76 1013.61 1013.49 1013.41 1013.36 1013.34 1013.35 1013.39 1013.48 1013.61 1013.79 1014.02 1014.29 1014.62 1014.98 1015.39 1015.84 1016.33 1016.86 1017.41 1017.99
1018.70 1018.53 1018.30 1018.01 1017.71 1017.42 1017.17 1016.97 1016.83 1016.74 1016.67 1016.61 1016.53 1016.42 1016.26 1016.04 1015.78 1015.49 1015.18 1014.87 1014.58 1014.31 1014.10 1013.92 1013.79 1013.71 1013.67 1013.68 1013.73 1013.82 1013.94 1014.11 1014.31 1014.54 1014.81 1015.11 1015.44 1015.80 1016.19 1016.62 1017.08 1017.57 1018.10
1018.67 1018.57 1018.40 1018.19 1017.96 1017.74 1017.55 1017.40 1017.30 1017.23 1017.18 1017.13 1017.04 1016.92 1016.75 1016.51 1016.23 1015.91 1015.57 1015.23 1014.91 1014.62 1014.38 1014.19 1014.06 1013.99 1013.98 1014.03 1014.12 1014.26 1014.44 1014.66 1014.90 1015.15 1015.43 1015.71 1016.01 1016.32 1016.65 1017.01 1017.39 1017.80 1018.25
1018.52 1018.50 1018.42 1018.30 1018.16 1018.02 1017.91 1017.81 1017.75 1017.70 1017.66 1017.60 1017.51 1017.37 1017.18 1016.93 1016.62 1016.29 1015.93 1015.57 1015.23 1014.92 1014.66 1014.47 1014.34 1014.29 1014.30 1014.38 1014.52 1014.71 1014.95 1015.21 1015.49 1015.78 1016.06 1016.34 1016.62 1016.89 1017.17 1017.45 1017.75 1018.09 1018.46
1018.25 1018.30 1018.31 1018.28 1018.24 1018.20 1018.16 1018.12 1018.10 1018.08 1018.04 1017.98 1017.88 1017.73 1017.52 1017.27 1016.96 1016.62 1016.27 1015.91 1015.58 1015.27 1015.01 1014.82 1014.69 1014.64 1014.66 1014.76 1014.92 1015.15 1015.41 1015.71 1016.02 1016.33 1016.63 1016.92 1017.18 1017.43 1017.66 1017.90 1018.14 1018.40 1018.70
1017.87 1017.98 1018.07 1018.13 1018.18 1018.21 1018.24 1018.26 1018.28 1018.27 1018.25 1018.19 1018.09 1017.94 1017.75 1017.51 1017.23 1016.92 1016.60 1016.28 1015.97 1015.68 1015.44 1015.25 1015.12 1015.07 1015.08 1015.17 1015.33 1015.55 1015.82 1016.12 1016.45 1016.78 1017.09 1017.38 1017.65 1017.89 1018.10 1018.31 1018.51 1018.73 1018.98
1017.39 1017.55 1017.69 1017.82 1017.94 1018.04 1018.12 1018.19 1018.23 1018.25 1018.23 1018.18 1018.10 1017.97 1017.81 1017.62 1017.39 1017.15 1016.89 1016.63 1016.38 1016.14 1015.92 1015.75 1015.62 1015.54 1015.54 1015.60 1015.73 1015.92 1016.17 1016.45 1016.77 1017.09 1017.41 1017.71 1017.98 1018.22 1018.44 1018.65 1018.85 1019.05 1019.28
1016.85 1017.04 1017.22 1017.40 1017.55 1017.69 1017.81 1017.90 1017.96 1017.99 1017.98 1017.95 1017.89 1017.80 1017.70 1017.57 1017.42 1017.27 1017.10 1016.93 1016.75 1016.58 1016.41 1016.26 1016.13 1016.05 1016.01 1016.03 1016.11 1016.25 1016.46 1016.71 1016.99 1017.30 1017.61 1017.91 1018.19 1018.45 1018.69 1018.91 1019.12 1019.33 1019.56
1016.29 1016.49 1016.70 1016.89 1017.07 1017.22 1017.35 1017.44 1017.51 1017.54 1017.54 1017.53 1017.49 1017.45 1017.40 1017.35 1017.30 1017.25 1017.19 1017.12 1017.03 1016.94 1016.83 1016.71 1016.60 1016.51 1016.45 1016.43 1016.46 1016.55 1016.70 1016.91 1017.15 1017.43 1017.72 1018.02 1018.31 1018.59 1018.84 1019.09 1019.32 1019.56 1019.80
1015.71 1015.93 1016.14 1016.34 1016.53 1016.68 1016.80 1016.89 1016.94 1016.97 1016.97 1016.97 1016.96 1016.95 1016.97 1016.99 1017.03 1017.07 1017.12 1017.15 1017.16 1017.15 1017.11 1017.04 1016.96 1016.87 1016.80 1016.76 1016.76 1016.81 1016.91 1017.07 1017.28 1017.52 1017.79 1018.08 1018.36 1018.65 1018.92 1019.18 1019.44 1019.69 1019.95
1015.12 1015.36 1015.58 1015.79 1015.97 1016.12 1016.23 1016.30 1016.34 1016.35 1016.35 1016.34 1016.35 1016.38 1016.43 1016.51 1016.62 1016.75 1016.88 1017.00 1017.10 1017.16 1017.19 1017.18 1017.14 1017.09 1017.03 1016.99 1016.97 1017.00 1017.08 1017.21 1017.38 1017.60 1017.84 1018.11 1018.38 1018.66 1018.93 1019.20 1019.47 1019.73 1019.99
1014.49 1014.76 1015.01 1015.24 1015.43 1015.58 1015.68 1015.74 1015.76 1015.76 1015.74 1015.73 1015.73 1015.77 1015.84 1015.96 1016.11 1016.28 1016.47 1016.66 1016.82 1016.95 1017.05 1017.10 1017.12 1017.11 1017.09 1017.07 1017.07 1017.11 1017.18 1017.30 1017.46 1017.65 1017.87 1018.11 1018.37 1018.62 1018.88 1019.13 1019.39 1019.65 1019.91
1013.80 1014.12 1014.41 1014.67 1014.88 1015.04 1015.15 1015.21 1015.23 1015.21 1015.18 1015.15 1015.15 1015.17 1015.24 1015.36 1015.51 1015.71 1015.92 1016.14 1016.34 1016.52 1016.67 1016.78 1016.86 1016.91 1016.95 1016.98 1017.03 1017.10 1017.20 1017.33 1017.49 1017.67 1017.87 1018.09 1018.31 1018.53 1018.76 1018.98 1019.21 1019.45 1019.70
1013.02 1013.39 1013.74 1014.04 1014.30 1014.49 1014.62 1014.69 1014.71 1014.69 1014.66 1014.61 1014.58 1014.59 1014.63 1014.73 1014.87 1015.05 1015.25 1015.47 1015.69 1015.89 1016.08 1016.24 1016.37 1016.49 1016.59 1016.70 1016.81 1016.94 1017.08 1017.25 1017.43 1017.62 1017.81 1018.00 1018.19 1018.38 1018.57 1018.75 1018.95 1019.15 1019.38
1012.15 1012.58 1012.98 1013.33 1013.63 1013.87 1014.03 1014.13 1014.17 1014.16 1014.12 1014.07 1014.02 1014.00 1014.01 1014.07 1014.17 1014.32 1014.49 1014.69 1014.90 1015.11 1015.31 1015.51 1015.69 1015.87 1016.04 1016.22 1016.41 1016.60 1016.81 1017.03 1017.24 1017.45 1017.65 1017.83 1018.00 1018.16 1018.30 1018.45 1018.61 1018.78 1018.98
1011.23 1011.69 1012.13 1012.53 1012.87 1013.15 1013.35 1013.48 1013.54 1013.54 1013.51 1013.46 1013.40 1013.36 1013.35 1013.37 1013.43 1013.54 1013.67 1013.84 1014.02 1014.22 1014.43 1014.64 1014.86 1015.08 1015.32 1015.56 1015.82 1016.09 1016.36 1016.63 1016.89 1017.14 1017.35 1017.55 1017.71 1017.85 1017.98 1018.10 1018.23 1018.38 1018.55
1010.31 1010.78 1011.24 1011.66 1012.03 1012.33 1012.55 1012.71 1012.79 1012.82 1012.80 1012.76 1012.70 1012.65 1012.62 1012.62 1012.65 1012.71 1012.81 1012.94 1013.10 1013.28 1013.47 1013.69 1013.92 1014.18 1014.46 1014.76 1015.07 1015.40 1015.74 1016.06 1016.38 1016.66 1016.92 1017.14 1017.32 1017.47 1017.59 1017.71 1017.83 1017.96 1018.11
Thickness
5641 5640 5639 5639 5640 5640 5640 5641 5643 5645 5648 5650 5652 5655 5659 5661 5664 5667 5670 5672 5675 5677 5680 5681 5682 5684 5684 5685 5686 5686 5686 5686 5684 5686 5689 5692 5693 5694 5694 5693 5693 5692 5692
5641 5639 5638 5638 5638 5637 5638 5638 5640 5642 5644 5646 5648 5651 5654 5656 5659 5662 5664 5666 5669 5671 5673 5674 5676 5677 5677 5678 5679 5680 5680 5681 5680 5679 5680 5683 5684 5686 5687 5686 5686 5685 5685
5641 5639 5637 5636 5636 5636 5636 5637 5638 5639 5640 5642 5644 5647 5649 5652 5655 5657 5659 5661 5663 5664 5666 5667 5668 5670 5670 5672 5673 5674 5675 5676 5676 5675 5674 5676 5677 5678 5678 5678 5678 5678 5677
5642 5639 5637 5635 5634 5634 5634 5635 5636 5636 5637 5638 5640 5643 5646 5648 5650 5652 5653 5654 5656 5657 5659 5660 5661 5663 5664 5666 5667 5668 5669 5669 5669 5669 5669 5669 5670 5671 5671 5669 5668 5669 5668
5643 5640 5637 5636 5635 5634 5633 5633 5633 5634 5634 5635 5636 5639 5641 5644 5645 5646 5647 5648 5648 5650 5651 5653 5655 5658 5660 5661 5662 5662 5663 5664 5663 5663 5663 5663 5664 5664 5664 5664 5662 5660 5659
5645 5642 5639 5637 5636 5634 5633 5632 5632 5632 5632 5632 5632 5634 5636 5638 5641 5642 5642 5642 5642 5643 5645 5647 5650 5652 5654 5656 5657 5658 5659 5659 5658 5658 5658 5658 5659 5659 5659 5658 5656 5653 5650
5647 5644 5641 5639 5636 5635 5634 5632 5631 5630 5629 5629 5629 5630 5632 5633 5636 5637 5637 5637 5637 5637 5639 5641 5643 5645 5647 5648 5650 5651 5653 5655 5656 5655 5653 5654 5654 5655 5654 5652 5650 5648 5646
5649 5646 5643 5640 5638 5636 5634 5632 5631 5629 5628 5627 5627 5627 5628 5630 5632 5633 5633 5632 5631 5631 5632 5634 5636 5637 5640 5641 5642 5642 5644 5645 5648 5649 5649 5650 5652 5651 5651 5649 5646 5642 5639
5652 5649 5646 5643 5640 5638 5635 5633 5631 5630 5628 5627 5626 5625 5625 5625 5628 5629 5629 5627 5627 5626 5627 5629 5631 5633 5635 5636 5636 5635 5636 5636 5639 5641 5643 5644 5645 5645 5645 5642 5639 5636 5631
5656 5653 5650 5647 5643 5640 5637 5635 5633 5631 5629 5627 5625 5623 5623 5622 5624 5625 5625 5623 5622 5622 5623 5625 5627 5628 5629 5630 5630 5630 5629 5629 5631 5633 5634 5635 5637 5637 5638 5638 5637 5632 5628
5661 5657 5654 5650 5647 5644 5640 5637 5634 5632 5629 5627 5624 5622 5621 5620 5621 5622 5622 5621 5619 5619 5619 5619 5621 5623 5624 5625 5626 5625 5625 5626 5626 5626 5626 5627 5628 5629 5630 5632 5632 5631 5628
5665 5661 5657 5653 5651 5648 5643 5639 5636 5633 5630 5627 5624 5622 5620 5619 5619 5619 5620 5619 5618 5617 5616 5617 5618 5620 5621 5622 5622 5622 5623 5623 5621 5621 5620 5621 5621 5622 5623 5625 5626 5626 5626
5668 5664 5660 5656 5653 5649 5646 5642 5638 5634 5631 5627 5624 5622 5619 5618 5618 5619 5618 5618 5617 5616 5616 5617 5618 5619 5619 5619 5619 5620 5619 5618 5617 5617 5616 5616 5617 5618 5619 5620 5620 5620 5620
5671 5666 5663 5658 5655 5651 5648 5644 5640 5636 5633 5630 5627 5623 5621 5619 5618 5617 5617 5617 5617 5617 5616 5617 5617 5617 5617 5617 5616 5616 5616 5616 5615 5615 5614 5614 5614 5615 5615 5615 5615 5614 5613
5674 5670 5666 5662 5658 5654 5650 5646 5644 5640 5637 5633 5630 5627 5624 5622 5620 5620 5619 5618 5618 5618 5617 5616 5615 5614 5613 5613 5613 5613 5613 5613 5613 5613 5612 5612 5612 5612 5611 5612 5611 5610 5608
5677 5673 5669 5665 5660 5656 5652 5649 5647 5644 5642 5639 5636 5632 5629 5627 5625 5624 5623 5622 5621 5621 5619 5615 5614 5612 5612 5612 5612 5611 5612 5612 5612 5612 5611 5611 5610 5610 5609 5608 5607 5606 5604
5681 5677 5672 5668 5664 5659 5655 5652 5648 5647 5645 5642 5639 5637 5634 5631 5629 5627 5626 5625 5624 5623 5619 5617 5615 5614 5613 5613 5613 5612 5612 5612 5612 5612 5611 5610 5610 5608 5607 5606 5604 5602 5600
5685 5681 5676 5671 5668 5664 5660 5656 5653 5649 5646 5644 5643 5641 5638 5635 5633 5631 5629 5627 5624 5623 5620 5619 5617 5616 5615 5615 5614 5614 5613 5613 5613 5612 5612 5611 5610 5608 5606 5604 5603 5601 5599
5687 5682 5679 5675 5671 5667 5664 5660 5657 5654 5650 5648 5645 5643 5642 5639 5636 5634 5632 5629 5626 5624 5623 5622 5621 5620 5618 5617 5617 5616 5615 5614 5614 5613 5612 5611 5610 5608 5606 5604 5602 5601 5598
5688 5686 5681 5676 5673 5669 5666 5663 5660 5657 5654 5651 5648 5647 5644 5640 5637 5636 5634 5632 5630 5628 5627 5625 5624 5623 5622 5620 5619 5618 5617 5616 5615 5614 5613 5611 5610 5609 5607 5605 5602 5600 5598
5689 5685 5683 5678 5674 5671 5668 5665 5663 5660 5657 5655 5653 5652 5649 5644 5642 5641 5638 5636 5634 5633 5631 5629 5628 5626 5625 5623 5622 5620 5619 5617 5616 5615 5613 5612 5610 5608 5607 5605 5603 5600 5598
5689 5685 5681 5678 5675 5672 5669 5667 5665 5662 5660 5658 5656 5655 5652 5648 5646 5644 5643 5641 5640 5638 5637 5634 5632 5630 5628 5626 5624 5622 5620 5619 5617 5616 5614 5612 5611 5609 5607 5604 5602 5600 5598
5688 5684 5680 5677 5675 5673 5670 5668 5666 5663 5662 5660 5658 5656 5653 5651 5649 5648 5647 5646 5644 5642 5640 5637 5635 5633 5631 5630 5628 5626 5623 5621 5619 5618 5615 5613 5611 5609 5607 5604 5602 5600 5598
5686 5683 5679 5676 5673 5671 5669 5667 5666 5664 5663 5661 5660 5658 5656 5654 5652 5651 5650 5649 5647 5645 5643 5640 5638 5636 5634 5632 5629 5627 5626 5624 5622 5619 5617 5614 5611 5609 5606 5604 5602 5601 5598
5683 5680 5677 5674 5672 5669 5667 5666 5665 5664 5663 5662 5661 5659 5658 5656 5654 5653 5652 5650 5648 5646 5644 5642 5640 5638 5636 5633 5631 5629 5627 5624 5622 5620 5617 5614 5612 5609 5606 5604 5602 5599 5597
5680 5677 5675 5672 5669 5667 5665 5664 5663 5662 5661 5661 5660 5659 5658 5656 5655 5654 5653 5651 5649 5647 5645 5643 5641 5639 5637 5635 5632 5630 5627 5624 5621 5618 5616 5613 5610 5607 5605 5602 5601 5598 5596